Ludington, MI

7:40 AM EST on November 19, 2019 (GMT -0500)
Mason County

Weather History for KLDM - September, 2019

Change the Weather History Date:

Sunday, September 22, 2019

  Actual Average Record
Temperature  
Mean Temperature 67 °F -  
Max Temperature 71 °F 66 °F 86 °F (2017)
Min Temperature 63 °F 47 °F 34 °F (1981)
Cooling Degree Days 2    
Growing Degree Days 17 (Base 50)    
Moisture  
Dew Point 67 °F    
Average Humidity 94    
Maximum Humidity 96    
Minimum Humidity 91    
Precipitation  
Precipitation 0.41 in - - ()
Sea Level Pressure  
Sea Level Pressure 29.84 in    
Wind  
Wind Speed 14 mph (SW)    
Max Wind Speed 24 mph    
Max Gust Speed 31 mph    
Visibility 8 miles    
Events Rain    
Averages and records for this station are not official NWS values.
T = Trace of Precipitation, MM = Missing Value Source: NWS Daily Summary

Daily Weather History Graph

Daily Weather History Graph

Search for Another Location

Airport or City:

Astronomy

Sep. 22, 2019 Rise Set
Actual Time 7:32 AM EDT 7:43 PM EDT
Civil Twilight 7:03 AM EDT 8:12 PM EDT
Nautical Twilight 6:29 AM EDT 8:45 PM EDT
Astronomical Twilight 5:55 AM EDT 9:20 PM EDT
Moon 12:09 AM EDT (9/22) 3:51 PM EDT (9/22)
Length of Visible Light 13h 08m
Length of Day
12h 10m
Last Quarter, 44% of the Moon is Illuminated
Sep 22
Last Quarter
Sep 28
New
Oct 5
First Quarter
Oct 13
Full
Oct 21
Last Quarter

Hourly Weather History & Observations

Time (EDT) Temp. Dew Point Humidity Pressure Visibility Wind Dir Wind Speed Gust Speed Precip Events Conditions
12:15 AM 71.2 °F 68.4 °F 91% 29.96 in 10.0 mi SSW 13.8 mph 20.7 mph N/A   Overcast
12:35 AM 70.9 °F 68.4 °F 92% 29.95 in 10.0 mi SSW 15.0 mph 23.0 mph N/A   Overcast
12:36 AM 70.9 °F 68.4 °F 92% 29.95 in 10.0 mi SSW 16.1 mph 24.2 mph N/A   Overcast
12:59 AM 71.1 °F 68.5 °F 92% 29.95 in 10.0 mi SSW 13.8 mph 23.0 mph N/A   Overcast
1:17 AM 71.6 °F 68.9 °F 91% 29.95 in 10.0 mi SSW 16.1 mph 26.5 mph N/A   Overcast
1:35 AM 71.2 °F 68.9 °F 92% 29.95 in 10.0 mi SSW 17.3 mph 23.0 mph N/A   Overcast
1:55 AM 70.9 °F 68.9 °F 93% 29.95 in 10.0 mi SSW 13.8 mph 21.9 mph N/A   Overcast
2:15 AM 70.7 °F 69.1 °F 95% 29.94 in 10.0 mi SSW 15.0 mph 19.6 mph N/A   Overcast
2:38 AM 70.9 °F 69.1 °F 94% 29.94 in 10.0 mi SSW 15.0 mph 19.6 mph N/A   Overcast
2:56 AM 70.9 °F 69.1 °F 94% 29.94 in 10.0 mi SSW 16.1 mph 20.7 mph N/A   Overcast
3:15 AM 70.9 °F 69.1 °F 94% 29.94 in 10.0 mi SSW 13.8 mph 19.6 mph N/A   Overcast
3:35 AM 70.7 °F 69.1 °F 95% 29.93 in 10.0 mi SSW 15.0 mph - N/A   Overcast
3:59 AM 70.7 °F 69.1 °F 95% 29.92 in 10.0 mi SSW 15.0 mph 20.7 mph N/A   Overcast
4:17 AM 70.7 °F 69.1 °F 95% 29.92 in 10.0 mi SSW 13.8 mph - N/A Rain Rain
4:35 AM 70.7 °F 69.3 °F 95% 29.91 in 10.0 mi SSW 12.7 mph 20.7 mph N/A Rain Rain
4:36 AM 70.7 °F 69.3 °F 95% 29.91 in 10.0 mi SSW 12.7 mph 20.7 mph N/A Rain Rain
4:55 AM 70.7 °F 69.3 °F 95% 29.91 in 10.0 mi SSW 15.0 mph 20.7 mph N/A   Overcast
5:15 AM 70.7 °F 69.3 °F 95% 29.90 in 10.0 mi SSW 13.8 mph 20.7 mph N/A   Overcast
5:38 AM 70.7 °F 68.9 °F 94% 29.90 in 10.0 mi SSW 15.0 mph 21.9 mph N/A   Overcast
5:56 AM 70.7 °F 68.5 °F 93% 29.89 in 10.0 mi SSW 13.8 mph 23.0 mph N/A   Overcast
6:15 AM 70.7 °F 68.4 °F 92% 29.89 in 10.0 mi SSW 16.1 mph 20.7 mph N/A   Overcast
6:16 AM 70.7 °F 68.2 °F 92% 29.89 in 10.0 mi SSW 17.3 mph 23.0 mph N/A   Overcast
6:35 AM 70.3 °F 68.0 °F 92% 29.89 in 10.0 mi SSW 17.3 mph 23.0 mph N/A   Overcast
6:59 AM 70.7 °F 67.8 °F 91% 29.89 in 10.0 mi SSW 15.0 mph 23.0 mph N/A   Overcast
7:16 AM 70.3 °F 67.5 °F 91% 29.89 in 10.0 mi SSW 17.3 mph 23.0 mph N/A   Overcast
7:35 AM 70.7 °F 68.0 °F 91% 29.89 in 10.0 mi SSW 16.1 mph 23.0 mph N/A   Overcast
7:36 AM 70.7 °F 68.0 °F 91% 29.89 in 10.0 mi SSW 17.3 mph 23.0 mph N/A   Overcast
7:55 AM 70.7 °F 67.8 °F 91% 29.88 in 10.0 mi SSW 15.0 mph 21.9 mph N/A   Mostly Cloudy
7:56 AM 70.7 °F 67.8 °F 91% 29.88 in 10.0 mi SSW 17.3 mph 21.9 mph N/A   Mostly Cloudy
8:15 AM 70.7 °F 68.0 °F 91% 29.87 in 10.0 mi SSW 16.1 mph 24.2 mph N/A   Scattered Clouds
8:38 AM 70.7 °F 68.0 °F 91% 29.87 in 10.0 mi SSW 16.1 mph 25.3 mph N/A   Mostly Cloudy
8:56 AM 70.7 °F 68.2 °F 92% 29.87 in 10.0 mi SSW 17.3 mph 25.3 mph N/A   Overcast
9:15 AM 70.7 °F 68.2 °F 92% 29.87 in 10.0 mi SSW 17.3 mph 26.5 mph N/A Rain Light Rain
9:16 AM 70.7 °F 68.4 °F 92% 29.87 in 10.0 mi SSW 19.6 mph 27.6 mph N/A Rain Light Rain
9:36 AM 69.6 °F 68.2 °F 95% 29.87 in 4.0 mi SW 15.0 mph 23.0 mph 0.04 in Rain Heavy Rain
9:59 AM 69.4 °F 68.2 °F 96% 29.86 in 4.0 mi SW 20.7 mph 26.5 mph 0.06 in Rain Rain
10:17 AM 69.4 °F 68.2 °F 96% 29.86 in 2.0 mi SSW 19.6 mph 31.1 mph 0.15 in Rain Heavy Rain
10:35 AM 69.3 °F 68.0 °F 96% 29.85 in 7.0 mi SW 15.0 mph - 0.15 in Rain Light Rain
10:36 AM 69.4 °F 68.2 °F 96% 29.85 in 7.0 mi SSW 16.1 mph 21.9 mph 0.15 in Rain Rain
10:55 AM 69.8 °F 68.4 °F 95% 29.84 in 7.0 mi SSW 17.3 mph 28.8 mph 0.15 in   Overcast
10:56 AM 69.8 °F 68.4 °F 95% 29.84 in 7.0 mi SSW 15.0 mph 28.8 mph 0.15 in   Overcast
11:15 AM 70.0 °F 68.9 °F 96% 29.83 in 10.0 mi SSW 20.7 mph 27.6 mph N/A Rain Rain
11:38 AM 70.0 °F 68.4 °F 95% 29.83 in 10.0 mi SSW 15.0 mph 25.3 mph 0.01 in   Overcast
11:56 AM 70.3 °F 68.5 °F 94% 29.82 in 10.0 mi SSW 16.1 mph 24.2 mph 0.01 in   Overcast
12:15 PM 69.8 °F 68.5 °F 96% 29.82 in 4.0 mi SSW 16.1 mph 24.2 mph 0.01 in Rain Light Rain
12:16 PM 69.8 °F 68.5 °F 96% 29.82 in 4.0 mi SSW 16.1 mph 24.2 mph 0.01 in Rain Light Rain
12:35 PM 70.0 °F 68.5 °F 95% 29.82 in 7.0 mi SSW 24.2 mph 31.1 mph 0.01 in Rain Rain
12:36 PM 70.0 °F 68.5 °F 95% 29.82 in 7.0 mi SSW 20.7 mph 31.1 mph 0.01 in Rain Rain
12:59 PM 69.8 °F 68.4 °F 95% 29.80 in 7.0 mi SSW 18.4 mph 24.2 mph 0.02 in Rain Light Rain
1:17 PM 69.4 °F 68.0 °F 95% 29.80 in 7.0 mi South 16.1 mph 25.3 mph 0.01 in Rain Light Rain
1:35 PM 69.3 °F 67.6 °F 95% 29.80 in 7.0 mi South 18.4 mph 24.2 mph 0.02 in Rain Light Rain
1:36 PM 69.3 °F 67.6 °F 95% 29.79 in 7.0 mi South 18.4 mph 24.2 mph 0.02 in Rain Light Rain
1:55 PM 69.8 °F 67.1 °F 91% 29.79 in 10.0 mi South 21.9 mph 28.8 mph 0.02 in Rain Light Rain
1:56 PM 69.8 °F 66.9 °F 91% 29.79 in 10.0 mi SSW 19.6 mph 28.8 mph 0.02 in Rain Light Rain
2:15 PM 69.4 °F 66.7 °F 91% 29.78 in 7.0 mi SSW 20.7 mph 27.6 mph 0.01 in Rain Light Rain
2:37 PM 68.9 °F 67.1 °F 94% 29.78 in 5.0 mi SSW 23.0 mph 29.9 mph 0.01 in Rain Light Rain
2:56 PM 68.5 °F 67.1 °F 95% 29.79 in 7.0 mi SW 15.0 mph 31.1 mph 0.02 in Rain Rain
3:15 PM 68.0 °F 66.9 °F 96% 29.79 in 5.0 mi WSW 13.8 mph 20.7 mph N/A Rain Rain
3:16 PM 68.0 °F 66.7 °F 96% 29.79 in 5.0 mi WSW 13.8 mph 18.4 mph N/A Rain Rain
3:35 PM 68.0 °F 66.7 °F 96% 29.79 in 5.0 mi SW 11.5 mph 19.6 mph N/A   Drizzle
3:36 PM 68.0 °F 66.6 °F 95% 29.79 in 5.0 mi SW 12.7 mph 16.1 mph N/A   Drizzle
3:59 PM 68.0 °F 66.6 °F 95% 29.79 in 5.0 mi SW 11.5 mph 16.1 mph 0.01 in Rain Rain
4:17 PM 67.5 °F 66.2 °F 96% 29.79 in 5.0 mi WSW 12.7 mph 16.1 mph N/A Rain Light Rain
4:35 PM 66.9 °F 65.7 °F 96% 29.80 in 7.0 mi West 6.9 mph 10.4 mph 0.01 in Rain Rain
4:55 PM 66.2 °F 64.8 °F 95% 29.79 in 10.0 mi West 6.9 mph - 0.01 in   Drizzle
4:56 PM 66.2 °F 64.8 °F 95% 29.79 in 10.0 mi West 5.8 mph - 0.01 in   Drizzle
5:15 PM 66.2 °F 64.8 °F 95% 29.79 in 10.0 mi WSW 5.8 mph - N/A   Overcast
5:20 PM 66.2 °F 64.8 °F 95% 29.79 in 10.0 mi West 4.6 mph - N/A   Overcast
5:37 PM 66.2 °F 64.8 °F 95% 29.79 in 7.0 mi SW 5.8 mph - N/A Rain Light Rain
5:56 PM 65.8 °F 64.6 °F 96% 29.79 in 7.0 mi WSW 8.1 mph - 0.01 in   Drizzle
6:15 PM 65.8 °F 64.6 °F 96% 29.80 in 7.0 mi WSW 6.9 mph - 0.01 in Rain Rain
6:16 PM 65.8 °F 64.6 °F 96% 29.80 in 5.0 mi WSW 6.9 mph - 0.01 in Rain Rain
6:35 PM 65.8 °F 64.6 °F 96% 29.79 in 7.0 mi WSW 5.8 mph - 0.02 in Rain Light Rain
6:36 PM 65.8 °F 64.6 °F 96% 29.79 in 7.0 mi WSW 5.8 mph - 0.02 in Rain Light Rain
6:59 PM 65.7 °F 64.4 °F 96% 29.78 in 10.0 mi SW 4.6 mph - 0.03 in Rain Rain
7:17 PM 65.5 °F 64.4 °F 96% 29.78 in 10.0 mi SW 4.6 mph - 0.01 in Rain Light Rain
7:35 PM 65.5 °F 64.4 °F 96% 29.78 in 10.0 mi SW 3.5 mph - 0.01 in Rain Light Rain
7:55 PM 65.7 °F 64.4 °F 96% 29.78 in 10.0 mi Calm Calm - 0.02 in Rain Light Rain
7:56 PM 65.7 °F 64.4 °F 96% 29.78 in 10.0 mi South 3.5 mph - 0.02 in Rain Light Rain
8:15 PM 65.8 °F 64.6 °F 96% 29.78 in 10.0 mi South 4.6 mph - N/A Rain Rain
8:20 PM 66.2 °F 64.8 °F 95% 29.78 in 10.0 mi South 3.5 mph - N/A   Drizzle
8:38 PM 66.2 °F 64.9 °F 96% 29.79 in 7.0 mi SSW 5.8 mph - N/A Rain Rain
8:56 PM 66.4 °F 65.1 °F 96% 29.79 in 7.0 mi SW 6.9 mph - 0.01 in Rain Heavy Rain
9:15 PM 66.2 °F 64.8 °F 95% 29.78 in 4.0 mi SW 6.9 mph - 0.02 in Rain Heavy Rain
9:35 PM 65.3 °F 64.0 °F 96% 29.79 in 10.0 mi WNW 3.5 mph - 0.02 in   Light Drizzle
9:59 PM 65.7 °F 64.4 °F 96% 29.79 in 10.0 mi West 3.5 mph - 0.02 in   Light Drizzle
10:17 PM 66.2 °F 64.8 °F 95% 29.79 in 5.0 mi Calm Calm - 0.01 in   Heavy Drizzle
10:35 PM 66.2 °F 64.8 °F 95% 29.79 in 3.0 mi West 5.8 mph - 0.01 in   Heavy Drizzle
10:55 PM 65.8 °F 64.6 °F 96% 29.79 in 7.0 mi NW 4.6 mph - 0.01 in   Overcast
11:15 PM 63.7 °F 62.4 °F 96% 29.78 in 5.0 mi NNE 3.5 mph - 0.01 in Rain Heavy Rain
11:20 PM 63.5 °F 62.1 °F 95% 29.79 in 7.0 mi WNW 3.5 mph - 0.01 in   Light Drizzle
11:38 PM 63.5 °F 62.1 °F 95% 29.79 in 10.0 mi Calm Calm - 0.01 in   Overcast
11:56 PM 63.1 °F 61.9 °F 96% 29.78 in 10.0 mi Calm Calm - 0.01 in   Mostly Cloudy